Weather History for Nebraska City, NE

Change the Weather History Date:

Sunday, June 23, 2013

  Actual Average (KSDA) Record (KSDA)
Temperature  
Mean Temperature 72 °F -  
Max Temperature 81 °F 85 °F 100 °F (1988)
Min Temperature 64 °F 63 °F 50 °F (1958)
Cooling Degree Days 8    
Growing Degree Days 22 (Base 50)    
Moisture  
Dew Point 69 °F    
Average Humidity 84    
Maximum Humidity 99    
Minimum Humidity 68    
Precipitation  
Precipitation 0.90 in - - ()
Sea Level Pressure  
Sea Level Pressure 29.87 in    
Wind  
Wind Speed 13 mph (SSE)    
Max Wind Speed 21 mph    
Max Gust Speed 28 mph    
Visibility 9 miles    
Events Rain , Thunderstorm    
Averages and records for this station are not official NWS values.
T = Trace of Precipitation, MM = Missing Value Source: NWS Daily Summary

Daily Weather History Graph

Daily Weather History Graph

Search for Another Location

Airport:

Trip Planner

Search our weather history database for the weather conditions in past years. The results will help you decide how hot, cold, wet, or windy it might be!

Date:

Astronomy

Jun. 23, 2013 Rise Set
Actual Time 5:53 AM CDT 8:58 PM CDT
Civil Twilight 5:20 AM CDT 9:31 PM CDT
Nautical Twilight 4:37 AM CDT 10:13 PM CDT
Astronomical Twilight 3:47 AM CDT 11:04 PM CDT
Moon 9:10 PM CDT (6/23) 6:12 AM CDT (6/23)
Length of Visible Light 16h 11m
Length of Day
15h 04m
Full, 100% of the Moon is Illuminated
Jun 23
Full
Jun 29
Last Quarter
Jul 8
New
Jul 15
First Quarter
Jul 22
Full

Hourly Weather History & Observations

Time (CDT) Temp. Heat Index Dew Point Humidity Pressure Visibility Wind Dir Wind Speed Gust Speed Precip Events Conditions
12:15 AM 78.8 °F - 68.0 °F 69% 29.86 in 10.0 mi South 15.0 mph 20.7 mph N/A   Clear
12:35 AM 78.6 °F - 68.2 °F 70% 29.84 in 10.0 mi South 16.1 mph 20.7 mph N/A   Clear
12:55 AM 78.4 °F - 68.2 °F 71% 29.82 in 10.0 mi South 17.3 mph 23.0 mph N/A   Clear
1:15 AM 78.3 °F - 68.2 °F 71% 29.82 in 10.0 mi South 18.4 mph 24.2 mph N/A   Clear
1:35 AM 78.3 °F - 68.0 °F 71% 29.82 in 10.0 mi South 20.7 mph 24.2 mph N/A   Clear
1:55 AM 78.3 °F - 68.0 °F 71% 29.83 in 10.0 mi South 17.3 mph - N/A   Clear
2:15 AM 77.9 °F - 67.6 °F 71% 29.82 in 10.0 mi South 20.7 mph - N/A   Clear
2:35 AM 77.9 °F - 67.6 °F 71% 29.82 in 10.0 mi South 19.6 mph 25.3 mph N/A   Clear
2:55 AM 77.5 °F - 67.3 °F 71% 29.82 in 10.0 mi South 20.7 mph 26.5 mph N/A   Clear
3:15 AM 77.2 °F - 67.1 °F 71% 29.81 in 10.0 mi South 18.4 mph 25.3 mph N/A   Clear
3:35 AM 77.5 °F - 66.9 °F 70% 29.81 in 10.0 mi South 18.4 mph 24.2 mph N/A   Clear
3:55 AM 77.5 °F - 66.7 °F 69% 29.81 in 10.0 mi South 19.6 mph 25.3 mph N/A   Clear
4:15 AM 77.4 °F - 66.6 °F 69% 29.81 in 10.0 mi South 19.6 mph 27.6 mph N/A   Clear
4:35 AM 77.4 °F - 66.6 °F 69% 29.80 in 10.0 mi South 20.7 mph - N/A   Clear
4:55 AM 77.5 °F - 66.6 °F 69% 29.82 in 10.0 mi SSW 15.0 mph 25.3 mph N/A   Clear
5:15 AM 77.5 °F - 66.4 °F 68% 29.80 in 10.0 mi South 17.3 mph 25.3 mph N/A Thunderstorm Scattered Clouds
5:35 AM 77.5 °F - 66.9 °F 70% 29.87 in 10.0 mi West 12.7 mph - N/A Thunderstorm Overcast
5:55 AM 69.4 °F - 66.7 °F 91% 29.88 in 3.0 mi North 16.1 mph 24.2 mph 0.09 in Rain , Thunderstorm Heavy Thunderstorms and Rain
6:15 AM 67.6 °F - 67.1 °F 98% 29.89 in 5.0 mi North 16.1 mph 19.6 mph 0.17 in Rain Heavy Rain
6:35 AM 67.1 °F - 66.7 °F 99% 29.92 in 1.8 mi North 20.7 mph 27.6 mph 0.53 in Rain , Thunderstorm Heavy Thunderstorms and Rain
6:55 AM 66.6 °F - 66.2 °F 99% 29.93 in 7.0 mi NNE 13.8 mph - 0.65 in Rain , Thunderstorm Heavy Thunderstorms and Rain
7:15 AM 66.6 °F - 66.4 °F 99% 29.92 in 10.0 mi NE 15.0 mph 18.4 mph 0.01 in Rain , Thunderstorm Light Thunderstorms and Rain
7:35 AM 65.7 °F - 65.3 °F 99% 29.92 in 10.0 mi ENE 15.0 mph 19.6 mph 0.01 in Rain , Thunderstorm Light Thunderstorms and Rain
7:55 AM 65.5 °F - 64.8 °F 98% 29.91 in 10.0 mi East 16.1 mph - 0.02 in Rain , Thunderstorm Light Thunderstorms and Rain
8:15 AM 65.3 °F - 64.6 °F 98% 29.88 in 7.0 mi ESE 15.0 mph 23.0 mph 0.06 in Rain , Thunderstorm Heavy Thunderstorms and Rain
8:35 AM 64.9 °F - 64.0 °F 97% 29.83 in 10.0 mi East 13.8 mph 25.3 mph 0.07 in Rain , Thunderstorm Light Thunderstorms and Rain
8:55 AM 64.6 °F - 63.9 °F 98% 29.86 in 10.0 mi ESE 13.8 mph 17.3 mph 0.07 in Thunderstorm Clear
9:15 AM 64.8 °F - 63.9 °F 97% 29.90 in 10.0 mi SSE 9.2 mph - N/A   Clear
9:35 AM 64.6 °F - 64.0 °F 98% 29.87 in 10.0 mi SSE 12.7 mph - N/A   Scattered Clouds
9:55 AM 64.8 °F - 63.9 °F 97% 29.88 in 10.0 mi SSE 8.1 mph - N/A   Clear
10:15 AM 64.8 °F - 63.9 °F 97% 29.87 in 10.0 mi SSE 10.4 mph - N/A   Clear
10:35 AM 65.3 °F - 64.4 °F 97% 29.86 in 10.0 mi SE 4.6 mph - N/A   Clear
10:55 AM 66.4 °F - 65.5 °F 97% 29.87 in 10.0 mi SSW 6.9 mph - N/A   Clear
11:15 AM 67.1 °F - 66.0 °F 96% 29.89 in 10.0 mi SSW 6.9 mph - N/A   Clear
11:35 AM 67.6 °F - 66.4 °F 96% 29.89 in 10.0 mi SSW 9.2 mph - N/A   Clear
11:55 AM 68.2 °F - 66.6 °F 95% 29.88 in 10.0 mi SSW 8.1 mph - N/A   Clear
12:15 PM 69.3 °F - 67.1 °F 93% 29.88 in 10.0 mi SSW 10.4 mph - N/A   Clear
12:35 PM 70.7 °F - 68.2 °F 92% 29.88 in 10.0 mi South 9.2 mph - N/A   Clear
12:55 PM 73.2 °F - 68.0 °F 84% 29.88 in 10.0 mi South 12.7 mph 17.3 mph N/A   Clear
1:15 PM 76.3 °F - 68.4 °F 76% 29.88 in 10.0 mi South 15.0 mph - N/A   Clear
1:35 PM 76.8 °F - 68.7 °F 76% 29.89 in 10.0 mi South 11.5 mph - N/A   Clear
1:55 PM 77.0 °F - 69.1 °F 76% 29.88 in 10.0 mi SSW 10.4 mph - N/A   Clear
2:15 PM 77.7 °F - 69.1 °F 75% 29.89 in 10.0 mi SSW 11.5 mph 16.1 mph N/A   Clear
2:35 PM 78.8 °F - 70.2 °F 75% 29.89 in 10.0 mi SSW 6.9 mph - N/A   Scattered Clouds
2:55 PM 79.7 °F - 70.3 °F 73% 29.90 in 10.0 mi SSW 6.9 mph - N/A   Scattered Clouds
3:15 PM 79.5 °F - 70.3 °F 73% 29.89 in 10.0 mi SW 6.9 mph - N/A   Clear
3:35 PM 80.8 °F 84.6 °F 71.1 °F 72% 29.88 in 10.0 mi WSW 8.1 mph - N/A   Scattered Clouds
3:55 PM 81.0 °F 84.7 °F 70.9 °F 71% 29.88 in 10.0 mi SSW 8.1 mph - N/A   Scattered Clouds
4:15 PM 81.5 °F 85.3 °F 70.5 °F 69% 29.87 in 10.0 mi SW 5.8 mph - N/A   Scattered Clouds
4:35 PM 80.4 °F 83.8 °F 70.3 °F 71% 29.87 in 10.0 mi SSW 4.6 mph - N/A   Mostly Cloudy
4:55 PM 79.9 °F - 70.7 °F 73% 29.87 in 10.0 mi Calm Calm - N/A   Overcast
5:15 PM 80.1 °F 83.6 °F 71.1 °F 74% 29.87 in 10.0 mi Calm Calm - N/A   Overcast
5:35 PM 80.2 °F 84.0 °F 71.8 °F 75% 29.87 in 10.0 mi Calm Calm - N/A   Overcast
5:55 PM 79.9 °F - 72.5 °F 78% 29.87 in 10.0 mi ENE 4.6 mph - N/A   Overcast
6:15 PM 79.7 °F - 72.7 °F 79% 29.87 in 10.0 mi ENE 5.8 mph - N/A   Overcast
6:35 PM 79.7 °F - 72.9 °F 80% 29.86 in 10.0 mi NE 3.5 mph - N/A   Overcast
6:55 PM 78.8 °F - 72.5 °F 81% 29.85 in 10.0 mi NNE 6.9 mph - N/A   Mostly Cloudy
7:15 PM 78.1 °F - 72.7 °F 83% 29.85 in 10.0 mi NNE 4.6 mph - N/A   Mostly Cloudy
7:35 PM 78.3 °F - 72.9 °F 83% 29.85 in 10.0 mi NE 4.6 mph - N/A   Overcast
7:55 PM 78.4 °F - 73.4 °F 84% 29.86 in 10.0 mi ENE 5.8 mph - N/A Thunderstorm Thunderstorm
8:15 PM 77.4 °F - 74.1 °F 90% 29.86 in 7.0 mi NNE 3.5 mph - N/A Rain , Thunderstorm Light Thunderstorms and Rain
8:35 PM 77.0 °F - 75.4 °F 95% 29.87 in 5.0 mi ENE 3.5 mph - 0.01 in Rain , Thunderstorm Thunderstorms and Rain
8:55 PM 76.3 °F - 75.6 °F 98% 29.87 in 2.5 mi ENE 3.5 mph - 0.07 in Rain , Thunderstorm Light Thunderstorms and Rain
9:15 PM 75.9 °F - 75.6 °F 99% 29.88 in 7.0 mi East 3.5 mph - N/A Rain Light Rain
9:35 PM 75.7 °F - 75.2 °F 98% 29.88 in 10.0 mi East 4.6 mph - N/A   Scattered Clouds
9:55 PM 75.7 °F - 75.2 °F 98% 29.89 in 7.0 mi ENE 4.6 mph - N/A   Mostly Cloudy
10:15 PM 75.4 °F - 74.7 °F 98% 29.89 in 10.0 mi East 9.2 mph - N/A   Overcast
10:35 PM 75.2 °F - 74.3 °F 97% 29.89 in 10.0 mi ESE 6.9 mph - N/A   Scattered Clouds
10:55 PM 74.5 °F - 73.8 °F 98% 29.89 in 10.0 mi ESE 5.8 mph - N/A   Clear
11:15 PM 74.3 °F - 73.8 °F 98% 29.89 in 10.0 mi ESE 4.6 mph - N/A   Scattered Clouds
11:35 PM 74.3 °F - 73.8 °F 98% 29.89 in 10.0 mi SE 3.5 mph - N/A   Mostly Cloudy
11:55 PM 74.3 °F - 73.9 °F 99% 29.89 in 10.0 mi Calm Calm - N/A   Overcast